OneWeb SL0362

operational
NORAD ID: 49288 Int'l Des: 2021-090 Owner: ONEWEBN Country: UK Constellation: oneweb
LEOCIRCULARPOLARONEWEB_TYPE

About OneWeb SL0362

Description loading...

Live Position

Loading 3D Globe...

Upcoming Passes

Altitude History

Altitude vs Time

uPlot chart will show altitude changes over time

Two-Line Element Set

1 49288U 21090K 25304.13470219 .00000010 00000-0 -64368-5 0 9998
2 49288 87.9237 350.5625 0002165 97.1213 263.0166 13.19725543196709
Epoch: Oct 31, 2025 • Age: 13 hours

Current Status

Altitude 1190.6 km
Velocity 7.26 km/s
Sub-Earth Point 41.33°N, 121.66°W
Launch Date Oct 14, 2021
Age 4 years
Type internet

Technical Details

Classification Payload
Mass 148.00 kg
Dry Mass 140.00 kg
Total Mass 148.00 kg
Length 1.30 m
Diameter 1.00 m
Span 5.00 m
Shape Trapezoid+2 pan
Manufacturer ONEWUS
Bus Type ARROW
Phase Status In Orbit
Owner/State ONEWEBN/UK

Large Constellations

Loading constellations...